Regional Weather Roundup
Issued by NWS

Home | Current Version | Previous Version | Text Only | Print | Product List | Glossary On
Versions: 1 2 3 4 5 6 7 8 9 10 11 12 13 14 15 16 17 18 19 20 21 22 23 24 25 26 27 28 29 30 31 32 33 34 35 36 37 38 39 40 41 42 43 44 45 46 47 48 49 50
000
ASUS43 KDMX 092108
RWRIA

WEATHER ROUNDUP FOR IOWA
NATIONAL WEATHER SERVICE DES MOINES IA
300 PM CST TUE FEB 09 2016

NOTE: "FAIR" INDICATES FEW OR NO CLOUDS BELOW 12,000 FEET WITH NO
SIGNIFICANT WEATHER AND/OR OBSTRUCTIONS TO VISIBILITY.

* - THESE STATIONS ARE NOT NWS STATIONS...THUS NOT UNDER NWS
QUALITY CONTROL.  THEY ALSO DO NOT REPORT WEATHER SUCH
AS PRECIPITATION OR FOG.

IAZ001>003-012>014-020>022-031>034-043>046-092200-
   NORTHWEST IOWA

CITY           SKY/WX    TMP DP  RH WIND       PRES   REMARKS
CARROLL *      SUNNY     16   7  67 NW22G29   30.16S WCI  -2
CHEROKEE *     CLOUDY    18   7  62 NW15G22   30.20R WCI   3
DENISON *      CLOUDY    18   7  62 N22       30.17F WCI   0
LE MARS *      PTSUNNY   21  12  68 NW14G21   30.23S WCI   8
ORANGE CITY *  CLOUDY    21  12  68 N12G21    30.19S WCI   9
SHELDON *      CLOUDY    18  10  73 NW18      30.18R WCI   2
SIOUX CITY     CLOUDY    23  11  60 NW20      30.23F WCI   8
SPENCER        CLOUDY    17   6  62 NW21G29   30.15F WCI   0
STORM LAKE *   CLOUDY    16   9  73 NW16      30.16S WCI   0
$$

IAZ055>058-069>071-079>083-090>094-092200-
   SOUTHWEST IOWA

CITY           SKY/WX    TMP DP  RH WIND       PRES   REMARKS
ATLANTIC *     SUNNY     18   7  62 NW16G22   30.19S WCI   3
AUDUBON *      SUNNY     18   7  62 NW16G23   30.16F WCI   3
CLARINDA *     SUNNY     23   7  50 N15G25    30.22F WCI  10
COUNCIL BLFS * SUNNY     21   7  53 NW15      30.21S WCI   8
CRESTON *      SUNNY     19   5  53 NW25G32   30.14F WCI   2
HARLAN  *      PTSUNNY   18   7  62 NW21      30.23S WCI   1
LAMONI         SUNNY     21   6  52 NW21      30.12S WCI   5
RED OAK *      SUNNY     21   5  49 NW20G31   30.21S WCI   6
SHENANDOAH *   SUNNY     23   7  50 NW16G25   30.23F WCI  10
$$

IAZ047>049-059>061-072>074-084-092200-
   CENTRAL IOWA

CITY           SKY/WX    TMP DP  RH WIND       PRES   REMARKS
AMES           SUNNY     16   5  62 NW25      30.12R WCI  -3
ANKENY *       SUNNY     18   5  57 NW15G23   30.12S WCI   3
BOONE *        SUNNY     16   5  62 NW22G30   30.10S WCI  -2
CHARITON *     MOSUNNY   19   7  58 NW16G26   30.10S WCI   5
DES MOINES     MOSUNNY   18   4  54 NW21G29   30.13R WCI   1
GRINNELL*      MOSUNNY   14   7  73 NW22G29   30.07S WCI  -4
KNOXVILLE *    MOSUNNY   18   5  57 NW16G28   30.08S WCI   3
MARSHALLTOWN   SUNNY     14   5  67 NW22      30.07F WCI  -4
NEWTON *       FLURRIES  16   9  73 NW24      30.09R WCI  -3
PELLA *        MOSUNNY   18   9  68 NW21G26   30.11R WCI   1
$$

IAZ004>006-015-016-023>025-035-036-092200-
   NORTH CENTRAL IOWA

CITY           SKY/WX    TMP DP  RH WIND       PRES   REMARKS
ALGONA *       MOSUNNY   16   9  73 NW20G31   30.10S WCI  -1
CLARION *      PTSUNNY   14   5  67 NW25      30.10S WCI  -5
ESTHERVILLE    SUNNY     16   7  67 NW22      30.13S WCI  -2
FORT DODGE *   SUNNY     16   5  62 NW9G18    30.13S WCI   4
MASON CITY     SUNNY     14   5  67 NW24      30.07S WCI  -5
FOREST CITY *  SUNNY     14   5  67 NW18G28   30.07S WCI  -3
WEBSTER CITY * PTSUNNY   14   7  73 NW24G33   30.09S WCI  -5
IOWA FALLS *     N/A     14   7  73 NW29G35   30.08R WCI  -7
$$

IAZ007>011-017>019-026>030-037>042-050>054-066-092200-
   NORTHEAST IOWA

CITY           SKY/WX    TMP DP  RH WIND       PRES   REMARKS
CEDAR RAPIDS   MOSUNNY   14   5  67 NW22      30.01S WCI  -4
CHARLES CITY * MOSUNNY   12   3  67 NW24      30.04R WCI  -8
CLINTON *      CLOUDY    18   8  65 NW20      29.96R WCI   2
DECORAH *      SUNNY     14   0  52 NW15G24   29.97R WCI  -1
DUBUQUE        SUNNY     13   4  67 NW17      29.93S WCI  -4
MONTICELLO *   PTSUNNY   14   3  62 NW20G28   29.98S WCI  -3
OELWEIN *      SUNNY     12   3  67 NW24G32   30.01R HAZE    WCI  -8
WATERLOO       SUNNY     14   4  64 NW16      30.04S WCI  -2
$$

IAZ064-065-067-068-078-092200-
   EAST CENTRAL IOWA

CITY           SKY/WX    TMP DP  RH WIND       PRES   REMARKS
DAVENPORT      MOSUNNY   17   6  62 NW23G31   29.97R WCI  -1
IOWA CITY      MOSUNNY   15   4  61 NW23G32   30.05S WCI  -3
MT. PLEASANT * MOSUNNY   19   9  63 NW18G29   30.04S WCI   4
MUSCATINE *    CLOUDY    18   7  62 NW18G29   30.04R WCI   2
QUAD CITIES    PTSUNNY   18   6  59 W23G30    29.98S WCI   0
$$

IAZ062-063-075>077-085>089-095>099-092200-
   SOUTHEAST IOWA

CITY           SKY/WX    TMP DP  RH WIND       PRES   REMARKS
BURLINGTON     CLOUDY    17   7  64 NW18G32   30.02R WCI   1
FAIRFIELD *    PTSUNNY   18   5  57 NW24      30.05S WCI   0
FORT MADISON * CLOUDY    18   9  68 NW22G30   30.03S WCI   0
KEOKUK *       CLOUDY    19   9  63 NW15G25   30.05R WCI   5
OSKALOOSA *      N/A     18   9  68 NW21G26   30.08S WCI   1
CENTERVILLE *  MOSUNNY   19  10  68 NW21      30.09S WCI   3
OTTUMWA        MOSUNNY   18   9  68 NW18G26   30.08S WCI   2
WASHINGTON *   PTSUNNY   16   7  67 NW22G32   30.06S WCI  -2
$$

ABBREVIATIONS USED IN REMARKS
   TC - TEMPERATURES IN CELSIUS
  WCI - WIND CHILL INDEX
   HX - HEAT INDEX
  VSB - VISIBILITY
$$




USA.gov is the U.S. government's official web portal to all federal, state and local government web resources and services.